Regional Weather Roundup
Issued by NWS Wilmington, NC

Home | Current Version | Previous Version | Text Only | Print | Product List | Glossary On
Versions: 1 2 3 4 5 6 7 8 9 10 11 12 13 14 15 16 17 18 19 20 21 22 23 24 25 26 27
000
ASUS42 KILM 242210
RWRILM
RWRILM
REGIONAL HOURLY WEATHER ROUNDUP
NATIONAL WEATHER SERVICE WILMINGTON NC
600 PM EDT THU APR 24 2014

NOTE: "FAIR" INDICATES FEW OR NO CLOUDS BELOW 12,000 FEET WITH NO
SIGNIFICANT WEATHER AND/OR OBSTRUCTIONS TO VISIBILITY.

...............WFO WILMINGTON COUNTY WARNING AREA...............

......COASTAL NC AND SC COUNTIES......

CITY           SKY/WX    TMP DP  RH WIND       PRES   REMARKS
WILMINGTON     SUNNY     67  43  41 SE8       30.03R
SOUTHPORT      SUNNY     64  46  51 E5        30.04S
N MYRTLE BEACH SUNNY     65  48  54 VRB7      30.03S
MYRTLE BEACH   SUNNY     64  50  59 E12       30.03S

......INLAND NC AND SC COUNTIES.......

CITY           SKY/WX    TMP DP  RH WIND       PRES   REMARKS
LUMBERTON      SUNNY     73  42  32 S6        30.00S
ELIZABETHTOWN  SUNNY     74  39  27 S6        30.01R
WHITEVILLE     SUNNY     74  46  36 S7        30.00S
FLORENCE       SUNNY     77  45  32 VRB7      29.99S
DARLINGTON     SUNNY     75  43  31 S5        30.01S

....................REST OF NORTH CAROLINA......................

.........EASTERN NC.........

CITY           SKY/WX    TMP DP  RH WIND       PRES   REMARKS
CAPE HATTERAS  SUNNY     59  42  53 SE8       30.05R
JACKSONVILLE   SUNNY     73  66  78 S10       30.02R
MOREHEAD CITY  SUNNY     62  41  46 SE9       30.04R
KENANSVILLE    SUNNY     71  31  23 CALM      30.02S
NEW BERN       SUNNY     71  34  25 SE7       30.02S
ELIZABETH CITY MOSUNNY   68  26  20 N5        30.01S

.........CENTRAL NC.........

CITY           SKY/WX    TMP DP  RH WIND       PRES   REMARKS
RALEIGH DURHAM PTSUNNY   69  37  30 VRB7      30.01S
ROCKY MOUNT    SUNNY     69  33  26 S5        30.01S
ROANOKE RAPIDS NOT AVBL
FAYETTEVILLE   SUNNY     74  36  25 SW8       30.00S
HOFFMAN        SUNNY     72  37  28 S8        30.01S

.........WESTERN NC.........

CITY           SKY/WX    TMP DP  RH WIND       PRES   REMARKS
CHARLOTTE      MOSUNNY   73  40  30 S10       29.99F
GREENSBORO     PTSUNNY   71  35  26 SW10G16   29.99R
HICKORY        NOT AVBL
BOONE          NOT AVBL
ASHEVILLE      NOT AVBL

.....................REST OF SOUTH CAROLINA.....................

.........EASTERN SC.........

CITY           SKY/WX    TMP DP  RH WIND       PRES   REMARKS
CHARLESTON     SUNNY     71  55  56 SE10      30.01S
BEAUFORT MCAS  MOSUNNY   69  60  73 SE10      30.00S
HILTON HEAD    NOT AVBL

.........CENTRAL SC.........

CITY           SKY/WX    TMP DP  RH WIND       PRES   REMARKS
COLUMBIA       MOSUNNY   80  46  30 SE9       29.96S
ORANGEBURG     CLOUDY    78  51  38 E5        29.97R
SUMTER SHAW    SUNNY     78  48  34 VRB6      29.97S

.........WESTERN SC.........

CITY           SKY/WX    TMP DP  RH WIND       PRES   REMARKS
GREENVILLE     NOT AVBL
ROCK HILL      SUNNY     74  39  28 SW5       29.99F
ANDERSON       SUNNY     76  41  28 SW5       29.98S
CLEMSON        NOT AVBL
GREENWOOD      SUNNY     78  42  27 S5        29.98S


...................COASTAL AND OFFSHORE REPORTS..................

................LOCAL PIERS AND NC RESERVE................


STATION/POSITION TIME  SKY/WX   TEMP    WIND        PRES    VSBY
                                AIR SEA DIR/SP/G
                 (UTC)          (F)     (DEG/KT/KT) (MB)    (MI)
JOHNY MRCER PIER 2200            61 63  140/ 10/ 11 1016.5R
NC RESRV MASNBRO 2100            64     130/  5     1016.0S
OCEAN CREST PIER 2200            62 64  120/ 12/ 13 1015.9R
SPRINGMAID  PIER 2200            62 63   80/ 14/ 15 1016.8R


................COASTAL AND OFFSHORE BUOYS................


STATION/POSITION TIME  SKY/WX   TEMP    WIND        PRES    VSBY
                                AIR SEA DIR/SP/G
                 (UTC)          (F)     (DEG/KT/KT) (MB)    (MI)
DIMNDSHOAL 41025 NOT AVBL
CAPE LOOKOUT     2100            58     130/  8/  9 1017.1F
ONSLOW BAY 41036 2100            62 70  130/  6/  8 1017.6F
5 WRITEBCH 41038 2100            61 61  140/ 10/ 12 1016.6F
MASONBORO  41110 2200               61                N/A
WVE H/P(F/S)=  3/ 9 WND WVE H/P(F/S)=  3/ 9

WILM HARBR 41108 NOT AVBL
27WRITEBCH 41037 NOT AVBL
FRYING PAN 41013 2200            66 68  100/ 12/ 14 1016.4S
WVE H/P(F/S)=  4/ 5 WND WVE H/P(F/S)=  3/ 5 SWL H/P/D(F/S/D)=  3/ 80/10

SUNST NRSH 41024 2100            63     120/ 12/ 14 1016.3F
CAPRS NRSH 41029 NOT AVBL
EDISTO     41004 2200            72 72   90/ 12/ 14 1015.1R
WVE H/P(F/S)=  4/ 6 WND WVE H/P(F/S)=  3/ 6 SWL H/P/D(F/S/D)=  2/ 8



..........OFFSHORE BUOYS BEYOND 100 NM OFFSHORE...........
.....IN A TRIANGLE---HAT TO BERMUDA TO BAHAMAS TO HAT.....


STATION/POSITION TIME  SKY/WX   TEMP    WIND        PRES    VSBY
                                AIR SEA DIR/SP/G
                 (UTC)          (F)     (DEG/KT/KT) (MB)    (MI)
150E HAT   41001 NOT AVBL
W BERMUDA  41048 2108            64 69  310/ 19/ 23 1014.7R
WVE H/P(F/S)= 12/11 WND WVE H/P(F/S)=  8/ 8 SWL H/P/D(F/S/D)= 10/340/11

ATLANTIC S 41049 2128            73 75  310/ 12/ 16 1014.3R
WVE H/P(F/S)=  5/14 WND WVE H/P(F/S)=  3/ 6 SWL H/P/D(F/S/D)=  3/ 20/14

E BAHAMAS  41046 2046            79 80  360/  8/ 10 1016.2R
WVE H/P(F/S)=  4/ 8 WND WVE H/P(F/S)=  2/ 3 SWL H/P/D(F/S/D)=  3/ 8

NE BAHAMAS 41047 2148            74 76   90/  6/  8 1016.4R
WVE H/P(F/S)=  4/ 7 WND WVE H/P(F/S)=  2/ 4 SWL H/P/D(F/S/D)=  3/320/ 7

120E CANVRL41010 2200            75 77  160/  6/  8 1015.8F
WVE H/P(F/S)=  2/15


END



USA.gov is the U.S. government's official web portal to all federal, state and local government web resources and services.